Theta_e
350 350 349 351 348 349 350 351 351 350 349 348 347 347 345 344 344 343 343 339 338 344 350 351 345 344 345 348 348 348 348 346 346 345 343 343 342 343 343 342 341 342 342
351 352 349 352 352 350 347 351 351 350 349 349 348 348 347 345 345 346 343 344 338 340 345 349 348 349 350 350 348 348 345 345 344 343 343 343 343 344 342 342 340 340 342
352 353 352 348 352 353 354 353 352 351 350 349 349 347 345 345 346 347 347 346 344 339 340 342 346 348 350 350 349 346 347 345 344 346 344 342 340 340 339 340 341 342 342
351 354 351 351 350 353 350 352 351 348 350 350 350 349 345 345 346 347 348 348 347 347 344 339 340 341 341 348 350 349 346 347 346 343 342 341 340 338 342 342 341 340 341
351 352 352 351 352 353 352 352 352 350 351 351 350 349 349 347 346 344 346 349 347 347 347 348 341 341 341 346 349 349 349 348 345 344 343 341 340 340 338 337 338 340 341
351 353 350 351 350 350 349 351 350 351 350 352 350 349 349 348 345 344 346 348 347 348 347 348 349 346 344 340 340 344 347 344 343 340 339 339 339 338 340 340 340 335 335
351 352 349 352 350 349 350 353 353 349 350 350 351 351 350 350 346 345 345 347 348 349 348 349 350 348 349 347 338 335 338 340 340 340 340 340 341 339 338 336 336 339 334
352 353 351 351 353 353 353 354 355 352 352 352 350 351 356 349 349 348 345 346 347 348 348 349 349 349 349 348 347 341 336 337 340 340 341 342 343 338 341 342 339 340 339
351 353 353 352 354 353 351 353 352 353 352 352 352 351 355 353 349 349 350 350 348 349 348 349 350 351 351 349 348 345 339 338 339 341 342 343 344 338 342 341 341 342 342
350 352 353 354 355 351 352 350 352 352 353 350 351 349 349 350 357 352 349 349 349 349 350 349 350 351 351 349 349 348 346 343 340 341 342 343 344 338 340 341 341 341 340
352 354 354 355 355 350 353 351 351 353 352 350 350 350 349 348 349 348 349 351 349 349 348 350 349 350 349 350 347 348 348 343 340 338 339 342 344 338 340 340 341 342 340
347 351 353 354 354 353 352 351 352 353 353 353 352 350 348 351 350 350 349 349 349 349 349 349 350 349 348 348 349 349 348 345 344 343 342 344 344 337 339 344 345 344 340
347 351 354 354 353 351 350 352 353 352 352 352 353 351 349 350 351 350 350 350 351 350 351 349 351 351 348 348 349 350 349 346 343 344 344 344 342 337 339 341 341 341 346
349 349 353 351 353 353 351 352 351 351 352 352 353 353 350 350 351 350 350 351 356 350 350 351 351 350 350 350 349 350 350 349 347 346 345 345 340 337 339 341 341 340 344
349 352 353 353 352 354 354 354 349 351 353 352 353 354 353 352 352 352 351 350 351 353 350 352 349 352 350 351 352 352 352 351 349 346 345 344 338 337 337 339 340 342 340
350 351 354 353 354 353 352 352 352 352 354 352 351 353 355 353 348 348 351 351 351 350 356 350 351 354 354 353 353 353 354 351 350 346 345 344 338 337 337 337 339 340 342
351 351 352 352 352 352 353 350 348 352 354 353 352 353 351 353 351 353 352 352 350 350 351 349 352 353 355 354 352 352 354 352 349 346 345 342 339 338 337 337 337 338 339
352 352 352 351 353 352 352 350 352 351 353 353 352 352 353 351 355 353 354 352 352 351 351 352 351 352 355 354 353 351 349 350 350 345 344 342 340 338 337 336 336 336 335
353 353 353 353 353 354 353 354 354 353 353 352 350 351 351 351 351 351 352 353 351 353 352 353 351 351 354 352 349 347 347 347 347 344 342 342 341 338 337 337 337 338 338
353 354 354 354 354 353 353 353 352 353 354 351 350 351 353 353 353 352 352 353 352 353 351 352 351 351 352 351 347 347 345 344 347 345 340 339 340 339 338 337 337 338 339
353 354 354 354 354 354 352 352 352 352 353 354 354 355 355 355 354 354 352 352 351 352 351 350 351 350 350 352 349 348 348 348 345 346 344 343 339 337 337 339 338 338 338
354 354 354 354 354 352 350 349 350 354 354 356 355 355 355 355 355 353 350 350 350 352 353 351 350 349 350 350 352 351 350 348 346 345 344 346 343 341 341 341 340 338 339
355 355 355 355 354 354 355 353 351 352 354 354 356 355 354 351 351 352 353 350 346 347 350 351 352 351 351 350 350 352 352 350 348 348 345 345 343 343 341 341 339 338 340
356 356 356 356 356 358 356 353 352 351 354 355 355 354 354 354 354 354 354 352 352 351 351 349 351 351 352 352 350 351 351 351 351 350 345 346 346 344 342 341 341 339 340
357 357 358 358 359 359 354 351 349 351 351 351 351 350 350 350 349 348 348 349 350 350 350 351 350 351 350 349 350 350 351 351 351 349 345 345 345 344 345 342 342 341 338
358 358 359 359 359 355 350 347 342 340 339 338 336 335 335 334 333 334 335 339 341 342 344 345 348 350 350 348 348 349 350 350 350 350 344 341 344 342 344 340 340 340 337
Wind_Speed
7 6 6 6 8 4 4 4 5 6 5 6 7 8 8 6 7 6 5 4 8 11 11 13 11 11 11 11 11 10 9 8 9 9 8 8 8 9 9 10 11 10 9
6 5 5 4 5 7 7 5 5 5 6 5 7 8 9 8 8 6 7 7 8 11 11 12 12 11 12 12 12 11 10 10 9 9 9 10 10 10 11 12 11 11 10
6 6 3 2 3 4 4 5 6 6 6 6 6 6 9 10 8 8 9 8 9 11 12 12 10 11 11 11 11 10 10 10 9 9 10 10 11 11 12 13 13 12 12
7 4 3 2 3 4 3 3 4 3 5 4 5 7 9 10 10 10 9 8 8 10 9 10 10 10 10 11 11 11 11 10 9 9 9 10 10 10 11 12 12 14 14
7 6 3 3 2 3 1 2 3 4 3 5 6 6 9 11 12 13 10 10 10 8 9 9 10 10 10 10 11 11 11 10 9 9 8 8 9 8 10 11 13 13 14
8 6 5 2 2 3 3 2 3 3 5 3 4 5 6 10 13 13 11 10 11 11 11 9 8 10 9 10 10 10 11 10 9 8 7 7 8 10 12 12 12 13 14
9 7 6 4 2 4 5 4 2 4 5 5 4 5 5 9 13 14 12 11 12 11 11 11 11 10 11 9 10 11 12 11 9 8 8 8 10 11 12 12 14 13 14
9 8 7 6 3 3 3 3 4 4 5 5 3 4 4 7 12 14 15 14 13 13 12 13 13 12 11 10 10 10 13 11 10 8 8 10 11 12 10 11 13 13 14
11 10 8 7 5 5 5 3 3 5 6 5 6 5 3 1 3 12 13 13 16 15 13 11 11 12 12 12 9 11 13 13 12 11 10 11 12 11 10 10 11 13 14
11 10 10 8 8 7 5 4 4 6 4 5 3 5 6 6 3 3 8 10 13 16 14 12 12 13 13 12 14 14 10 13 14 13 12 12 12 11 10 9 11 12 12
10 12 11 9 8 8 6 6 5 5 7 7 4 3 4 7 6 7 4 7 9 14 15 14 14 12 13 13 12 13 15 17 16 15 15 14 13 11 10 9 8 11 11
11 13 11 10 9 8 8 8 7 7 7 6 7 6 9 2 5 7 6 8 5 7 12 13 13 13 13 14 13 14 15 13 14 14 14 13 12 11 10 9 9 9 9
13 14 11 10 10 8 9 9 8 8 7 7 7 7 9 6 5 4 5 9 5 4 8 12 13 13 14 15 15 15 17 18 16 14 14 13 12 10 9 10 11 12 13
15 9 10 11 10 9 9 9 9 9 7 7 8 7 8 8 7 7 8 6 8 6 6 10 9 12 13 15 13 15 15 19 18 16 15 13 12 11 10 9 9 9 10
11 10 9 10 11 10 10 10 9 10 8 6 7 8 8 6 6 7 8 9 8 7 4 6 5 8 10 11 12 11 11 16 16 16 15 13 12 11 10 9 9 10 11
14 10 12 11 10 10 10 11 8 7 7 7 8 7 7 7 7 9 11 11 10 10 6 5 4 4 5 7 9 11 10 16 14 15 16 14 14 12 11 10 10 10 10
15 14 11 9 10 10 9 9 9 5 5 6 7 8 9 8 10 9 11 12 11 12 12 14 8 7 6 7 7 8 11 9 11 17 18 16 15 15 13 12 11 11 11
17 14 12 12 10 10 8 9 8 6 7 8 9 10 11 10 11 12 13 15 14 12 15 14 14 11 10 8 9 10 11 10 13 16 18 18 18 18 16 14 13 13 13
16 15 14 14 13 10 10 9 9 10 11 11 12 13 13 12 14 13 12 13 15 16 15 17 16 11 9 9 8 11 12 14 13 17 18 20 21 21 20 19 17 15 15
17 16 14 13 14 13 13 13 13 14 14 15 14 14 14 15 15 16 16 16 17 15 16 16 18 14 14 11 11 11 14 16 16 15 16 16 18 23 25 23 21 19 18
18 17 16 16 16 16 17 16 17 16 17 16 15 15 16 17 18 18 17 17 17 17 18 17 19 13 16 13 11 12 15 12 15 17 17 17 17 18 20 24 25 24 21
19 19 20 19 18 17 17 19 17 14 15 16 17 17 17 18 19 22 24 25 23 19 20 19 21 21 14 16 16 16 14 12 7 16 19 20 19 19 17 19 18 19 19
18 19 17 17 17 15 16 19 19 17 17 17 17 17 18 19 18 19 20 22 23 26 28 25 23 24 22 21 19 19 17 17 18 7 13 16 16 20 20 22 26 26 22
19 19 18 16 15 14 20 19 16 14 14 16 16 17 18 19 18 18 18 21 22 22 23 25 26 28 27 26 22 23 22 20 18 15 14 13 13 17 17 19 23 27 23
17 18 17 15 15 14 18 14 9 8 11 13 14 16 17 20 20 22 19 22 24 25 24 26 28 27 26 27 26 20 19 17 16 17 18 15 12 15 15 17 17 23 25
17 16 15 15 14 17 16 11 8 7 9 12 14 16 18 19 20 23 18 20 24 25 23 23 24 24 23 26 30 27 25 21 19 15 17 18 16 11 7 14 18 18 21
Wind_Direction
237 254 269 244 249 241 240 208 212 214 213 218 207 208 214 195 186 184 184 218 188 181 191 202 203 211 207 208 213 216 224 231 240 239 241 244 247 242 243 252 254 254 250
246 266 241 231 243 248 262 254 226 222 224 221 214 214 207 199 201 203 188 188 196 190 193 196 203 207 212 212 218 219 226 228 236 243 246 246 252 252 251 252 254 251 249
251 263 261 257 242 259 269 235 223 220 228 214 209 206 201 201 207 205 197 191 191 199 201 206 210 211 215 219 223 226 233 234 236 243 248 255 259 259 255 251 251 244 244
244 254 259 273 284 237 278 242 239 219 212 203 203 207 203 203 206 202 205 210 206 198 201 214 213 216 221 222 224 227 230 235 235 245 251 262 264 260 254 251 248 242 239
231 240 266 296 261 218 275 297 283 259 238 216 211 212 217 214 206 205 214 217 217 221 217 213 226 226 229 228 227 227 231 235 240 249 259 266 268 261 257 252 247 243 240
227 236 252 270 228 222 276 272 284 285 276 266 247 208 229 211 206 209 215 223 221 225 226 225 228 239 243 237 226 221 226 236 237 247 256 268 277 271 263 256 252 245 239
220 228 237 239 249 251 259 261 250 277 271 254 269 222 229 224 210 215 220 222 223 228 228 228 233 250 238 245 236 224 226 230 234 243 259 278 286 284 273 259 251 246 237
214 221 227 235 244 244 240 251 250 260 261 241 235 233 206 210 218 223 224 226 224 225 234 239 241 242 248 245 230 231 228 229 234 247 266 282 286 288 275 263 250 243 238
219 229 233 227 238 244 266 262 260 269 300 257 252 271 282 315 179 197 222 232 223 222 232 229 236 236 235 236 238 240 235 230 236 251 267 279 287 286 271 266 253 245 240
222 228 212 221 231 244 265 265 261 280 283 288 230 246 271 325 295 206 205 219 217 221 228 242 239 237 235 237 238 238 237 242 246 253 263 269 286 285 271 266 257 245 242
219 205 204 219 230 238 245 258 272 267 271 279 277 252 254 244 241 281 282 176 216 229 231 230 239 236 233 238 241 241 243 243 247 253 257 265 276 279 266 259 255 240 241
220 220 208 220 234 239 243 243 256 261 269 283 290 255 264 264 262 243 249 266 276 232 226 226 232 236 235 235 239 243 244 246 245 249 253 259 271 272 265 247 242 246 242
218 211 214 223 240 239 244 242 245 250 252 256 255 250 241 260 282 260 294 286 257 246 240 235 230 231 232 238 245 243 249 246 244 250 250 253 265 263 256 247 243 241 237
203 197 216 229 240 250 243 239 241 247 242 250 247 240 249 244 259 258 271 296 293 224 244 249 220 228 235 237 241 243 243 252 243 246 241 248 255 254 248 247 244 232 220
209 214 220 224 228 240 244 239 241 231 243 243 246 246 245 266 274 272 263 264 280 295 289 155 249 228 232 233 241 245 243 241 242 237 236 247 244 245 240 241 241 237 233
212 214 220 218 225 232 250 250 238 211 227 242 240 229 240 243 251 247 261 253 256 257 268 285 257 238 222 234 239 236 239 245 238 231 233 241 240 239 235 237 238 238 238
218 221 227 228 231 229 232 239 238 230 247 244 256 252 250 250 255 245 249 251 249 247 257 264 250 246 238 234 239 229 232 228 238 229 231 238 236 238 236 237 240 243 243
223 223 227 233 233 228 234 239 246 253 243 248 252 254 261 261 263 262 250 256 262 263 261 262 260 246 238 242 242 227 225 225 226 245 233 233 238 240 239 241 244 247 248
222 223 225 226 229 230 230 235 239 244 249 255 260 256 258 255 254 259 258 255 254 248 246 261 268 246 248 240 233 232 232 229 230 240 236 237 239 239 243 246 247 250 252
220 224 227 230 232 235 241 248 246 246 251 257 255 251 252 252 252 253 253 253 256 263 256 257 261 257 242 240 238 239 234 235 233 236 248 243 243 244 245 247 248 250 252
220 223 227 231 236 238 245 244 242 245 249 253 252 251 253 254 252 248 254 257 257 251 259 261 264 250 249 226 235 250 245 244 244 234 234 237 236 242 245 246 248 248 250
217 221 227 233 240 246 247 245 241 253 256 258 260 258 258 258 258 259 254 252 250 254 255 257 257 271 276 255 248 247 243 231 243 234 232 240 231 235 240 234 244 250 245
217 222 229 235 240 242 249 250 252 255 262 264 265 269 272 271 268 261 263 261 256 252 247 250 255 258 260 254 255 243 234 234 240 230 210 246 235 235 235 234 234 242 249
210 215 222 224 232 240 245 247 254 265 263 268 270 272 271 272 270 270 269 267 261 255 250 246 245 251 255 257 252 246 248 244 251 246 213 249 232 234 239 238 243 250 246
207 211 215 218 227 237 254 265 257 257 267 275 276 275 274 272 270 276 272 265 264 260 258 253 251 249 251 253 249 245 238 237 239 238 218 234 235 238 239 240 240 253 256
207 217 220 220 224 223 241 228 238 267 272 283 286 280 282 281 276 274 283 281 276 271 266 264 259 252 258 256 250 241 239 224 230 243 218 208 235 218 237 237 233 233 253